Location: Be?chatów
(51.3665°N, 19.3745°E)
Time: 22:26:54
(UTC+00:00)

Cosmos 2322 Rocket - Pass Details

Date: 19 May 2025
Orbit: 832 x 850 km, 71.0° (Epoch: 16 June)

Event Time Altitude Azimuth Distance (km) Brightness Sun altitude
Rises 21:06:00 0° 331° (NNW) 3,419 7.2 -15.8°
Reaches altitude 10° 21:08:39 10° 339° (NNW) 2,478 6.0 -16.0°
Maximum altitude 21:13:56 38° 47° (NE) 1,267 3.3 -16.3°
Enters shadow 21:18:30 13° 112° (ESE) 2,234 4.0 -16.5°
